{"data":{"norad_id":64677,"epoch":"2026-05-25T02:52:20.885088Z","epoch_age_seconds":58516,"freshness":"FRESH","line1":"1 64677U 25139P   26145.11968617  .00014772  00000+0  50969-3 0  9999","line2":"2 64677  53.1598 121.5416 0001129 103.5822 256.5304 15.30210699 52139","mean_motion":15.30210699,"eccentricity":0.0001129,"inclination_deg":53.1598,"raan_deg":121.5416,"arg_perigee_deg":103.5822,"mean_anomaly_deg":256.5304,"bstar":0.00050969,"rev_number":5213,"period_min":94.104687736208,"perigee_km":474.40938447793,"apogee_km":475.956864162,"semimajor_km":6853.32012432,"source":"CELESTRAK","updated_at":"2026-05-25T13:38:20.505388Z"}}